User: anonymous   Login
Location: Mentone
(34.5413°N, 85.5351°W)
Time: 20:51:26
(UTC-05:00)
Language:

ADEOS Rocket - Orbit

View from above orbital plane
View from above orbital plane
View from above satellite
View from above satellite

Ground track
Ground track

The orbit data is extracted from the following two-line orbital elements,

1 24279U 96046C   16243.97046845 -.00000018 +00000-0 +25291-4 0  9991
2 24279 098.7093 218.3853 0299377 308.9430 113.2527 13.47056192984905
Epoch (UTC): 30 August 2016 23:17:28
Eccentricity: 0.0299377
inclination: 98.7093°
perigee height: 860 km
apogee height: 1306 km
right ascension of ascending node: 218.3853°
argument of perigee: 308.9430°
revolutions per day: 13.47056192
mean anomaly at epoch: 113.2527°
orbit number at epoch: 98490

The dashed part of the orbit path shows where the satellite is in the earth's shadow,  

DLR